Flag for U.S.A. Weather past 2 weeks in Wichita, Kansas, U.S.A.

Now
72 °F

Passing clouds.


Feels Like: 75 °F
Forecast: 61 / 80 °F
Wind: 5 mph from North

Location: Wichita Mid-Continent Airport

Current Time: Jul 31, 2014 at 10:33:08 AM

Latest Report: Jul 31, 2014 at 9:53 AM


Visibility: 10 mi

Pressure: 30.11 "Hg

Humidity: 68%

Dew point: 61 °F

Location of WichitaLocation

Historic Weather in Wichita — Graph

°F

Wichita temperature yesterday

Maximum temperature yesterday: 72 °F (at 12:53 AM)
Minimum temperature yesterday: 65 °F (at 11:53 PM)
Average temperature yesterday: 69 °F

Past Weeks' High & Low Weather Summary

 TemperatureHumidityPressure
High103 °F (Jul 26, 3:53 PM)100% (Jul 19, 5:53 AM)30.26 "Hg (Jul 19, 5:53 AM)
Low57 °F (Jul 19, 5:53 AM)24% (Jul 25, 5:53 PM)29.72 "Hg (Jul 25, 6:53 PM)
Average76 °F69%29.99 "Hg
* Reported Jul 16 8:53 AM — Jul 31 8:53 AM, Wichita, Weather by CustomWeather, © 2014

Note: Actual official high and low records may vary slightly from our data, if they occured in-between our weather recording intervals... More about our weather records

Advertising

Wichita weather history for previous 24 hours

 ConditionsComfort  
Time TempWeatherWind HumidityBarometerVisibility
8:53 AM
Jul 31
68 °FScattered clouds.5 mph78%30.12 "Hg10 mi
7:53 AM64 °FFog.7 mph87%30.11 "Hg4 mi
6:53 AM60 °FFog.5 mph93%30.11 "Hg4 mi
5:53 AM60 °FFog.10 mph93%30.10 "Hg6 mi
4:53 AM60 °FFog.8 mph93%30.10 "Hg4 mi
4:03 AM60 °FFog.5 mph96%30.11 "Hg2 mi
3:53 AM60 °FFog.7 mph96%30.09 "Hg3 mi
2:53 AM61 °FFog.5 mph93%30.09 "Hg4 mi
1:53 AM63 °FFog.3 mph93%30.10 "Hg6 mi
12:53 AM65 °FPassing clouds.3 mph91%30.10 "Hg7 mi
11:53 PM
Jul 30
65 °FPassing clouds.6 mph91%30.10 "Hg8 mi
10:53 PM66 °FPassing clouds.6 mph90%30.10 "Hg9 mi
9:53 PM67 °FPassing clouds.5 mph87%30.09 "Hg9 mi
8:53 PM68 °FBroken clouds.8 mph87%30.07 "Hg8 mi
7:53 PM69 °FBroken clouds.12 mph87%30.06 "Hg9 mi
6:53 PM68 °FCloudy.10 mph90%30.06 "Hg7 mi
5:53 PM68 °FLight rain. Fog.12 mph90%30.06 "Hg6 mi
4:53 PM68 °FLight rain. Fog.10 mph90%30.06 "Hg4 mi
3:53 PM68 °FLight rain. Fog.12 mph90%30.06 "Hg4 mi
2:53 PM68 °FLight rain. Fog.14 mph90%30.06 "Hg4 mi
1:53 PM69 °FLight rain. Mostly cloudy.14 mph90%30.06 "Hg7 mi
12:53 PM70 °FCloudy.7 mph84%30.06 "Hg10 mi
11:53 AM70 °FLight rain. Mostly cloudy.8 mph87%30.07 "Hg9 mi
10:53 AM71 °FMostly cloudy.8 mph73%30.07 "Hg10 mi
Weather by CustomWeather, © 2014

See weather overviewHow to use our weather pages